[[{"header":{"parameterUnit":"m.s-1","parameterCategory":2,"la1":30.2991,"la2":30.254,"lo1":-89.0895,"lo2":-89.0444,"dy":0.0017,"dx":0.0017,"nx":28,"ny":28,"refTime":"2024-10-10T09:00:00:Z","depth":"0","parameterNumber":2,"parameterNumberName":"U-component_of_CURRENTS"},"data":[0,0,0,0,0,0,0,0,0,0,0,0,0,0,0,0,0,0,0,0,0,0,0,0,0,0,0,0,0,0,0,0,0,0,0,0,0,0,0,0,0,0,0,0,0,0,0,0,0,0,0,0,0,0,0,0,0,0,-0.2538,-0.2539,0,-0.2582,-0.2582,-0.2582,-0.2562,-0.2561,-0.2561,-0.256,-0.2464,-0.2462,-0.246,0,0,0,0,0,0,0,0,0,0,0,0,0,-0.2419,-0.2421,-0.2538,-0.2539,-0.254,-0.2582,-0.2582,-0.2582,-0.2562,-0.2561,-0.256,-0.256,-0.2465,-0.2462,-0.246,0,0,0,0,0,0,0,0,0,0,0,0,0,-0.2462,-0.2422,-0.2537,-0.2539,-0.254,-0.2582,-0.2582,-0.2582,-0.2562,-0.2561,-0.256,-0.2559,-0.2466,-0.2463,-0.246,-0.2458,0,0,-0.245,-0.2449,0,0,0,0,0,0,0,0,-0.246,-0.2466,-0.2538,-0.2539,-0.254,-0.2571,-0.2506,-0.2536,-0.2562,-0.2548,-0.256,-0.2559,-0.2491,-0.2486,-0.249,-0.2454,-0.245,-0.245,-0.2448,-0.2447,-0.2446,0,0,0,0,0,0,0,-0.2457,-0.2464,-0.2549,-0.2539,-0.2541,-0.2533,-0.2537,-0.2511,-0.2517,-0.2549,-0.2549,-0.2563,-0.249,-0.2493,-0.2487,-0.2448,-0.245,-0.2448,-0.2446,-0.2445,-0.2384,-0.2384,0,0,0,0,0,0,-0.2466,-0.2462,-0.2548,-0.2551,-0.2504,-0.2536,-0.2541,-0.2557,-0.252,-0.2516,-0.2564,-0.2562,-0.2499,-0.2491,-0.2484,-0.2477,-0.2447,-0.2444,-0.2443,-0.2384,-0.2384,-0.2384,0,0,0,0,0,0,-0.2463,-0.2473,-0.2546,-0.2511,-0.2521,-0.254,-0.2558,-0.2559,-0.2564,-0.2534,-0.2526,-0.257,-0.2498,-0.2488,-0.2462,-0.2473,-0.2443,-0.244,-0.2383,-0.2384,-0.2384,-0.2465,0,0,0,0,0,0,-0.2459,-0.2472,-0.2485,-0.2512,-0.2524,-0.2583,-0.2559,-0.256,-0.2577,-0.2575,-0.2537,-0.2527,-0.2496,-0.2467,-0.2459,-0.2468,-0.2438,-0.2383,-0.2384,-0.2384,-0.2462,-0.2468,-0.2473,0,0,0,0,0,-0.2455,-0.2483,-0.2485,-0.2496,-0.2542,-0.2585,-0.2589,-0.2595,-0.2579,-0.2593,-0.2557,-0.2528,-0.2463,-0.2465,-0.2455,-0.2464,-0.2383,-0.2383,-0.2384,-0.246,-0.2467,-0.2473,0,0,0,0,0,0,-0.2444,-0.2485,-0.2487,-0.2528,-0.2558,-0.2584,-0.26,-0.2601,-0.2587,-0.2575,-0.2533,-0.2522,-0.2504,-0.2471,-0.2473,-0.2446,-0.2417,-0.2416,-0.2478,-0.2485,-0.249,-0.2511,-0.2435,0,0,0,0,0,-0.2449,-0.2473,-0.2514,-0.2544,-0.2561,-0.2579,-0.2595,-0.2602,-0.2599,-0.2594,-0.2567,-0.2529,-0.2501,-0.2482,-0.2455,-0.244,-0.2435,-0.2437,-0.2443,-0.2448,-0.2458,-0.2465,-0.2473,-0.2386,-0.2386,-0.2386,0,0,-0.2455,-0.2479,-0.2495,-0.2543,-0.2561,-0.2596,-0.2585,-0.2618,-0.2638,-0.2582,-0.2584,-0.255,-0.2502,-0.2489,-0.2477,-0.246,-0.2472,-0.2449,-0.2454,-0.246,-0.2466,-0.2475,-0.2483,-0.2386,-0.2386,-0.2386,0,0,-0.2475,-0.25,-0.2524,-0.2556,-0.2596,-0.2612,-0.2625,-0.2653,-0.2654,-0.2659,-0.2619,-0.2598,-0.2556,-0.2531,-0.2509,-0.2527,-0.2505,-0.2509,-0.2552,-0.2559,-0.2567,-0.2574,-0.2594,-0.2602,-0.2508,-0.2509,-0.2509,0,-0.2479,-0.2519,-0.2539,-0.2575,-0.2605,-0.2621,-0.2658,-0.2671,-0.2684,-0.2682,-0.2667,-0.2621,-0.258,-0.2566,-0.2568,-0.2543,-0.2545,-0.2534,-0.2569,-0.2576,-0.2581,-0.26,-0.2608,-0.2513,-0.2512,-0.2512,-0.2511,0,-0.2514,-0.2554,-0.2576,-0.2621,-0.2652,-0.2694,-0.2722,-0.2738,-0.2736,-0.2741,-0.2734,-0.2695,-0.2663,-0.2649,-0.261,-0.2623,-0.2613,-0.2582,-0.256,-0.2596,-0.2612,-0.2619,-0.2518,-0.2517,-0.2516,-0.2515,0,0,-0.2514,-0.2585,-0.2594,-0.2626,-0.2684,-0.2716,-0.2747,-0.2781,-0.2797,-0.28,-0.2818,-0.2775,-0.2754,-0.2727,-0.2686,-0.2691,-0.2731,-0.2655,-0.2653,-0.2689,-0.2762,-0.2737,-0.2741,-0.2708,-0.2709,-0.271,-0.2764,0,-0.2538,-0.2605,-0.2632,-0.2702,-0.2747,-0.2773,-0.2806,-0.2832,-0.284,-0.286,-0.2835,-0.283,-0.2784,-0.2769,-0.277,-0.2735,-0.275,-0.2721,-0.2709,-0.2709,-0.2694,-0.2748,-0.251,-0.2536,-0.277,-0.2772,-0.2772,0,-0.2566,-0.2612,-0.2675,-0.2752,-0.2772,-0.2807,-0.2856,-0.2886,-0.291,-0.2915,-0.2913,-0.2894,-0.2892,-0.2852,-0.2844,-0.2827,-0.2804,-0.2788,-0.2789,-0.2741,-0.2696,-0.2533,-0.2539,-0.2403,-0.2782,-0.2781,-0.2781,0,-0.2555,-0.2645,-0.2691,-0.2722,-0.2804,-0.2825,-0.2859,-0.2894,-0.2921,-0.2946,-0.2964,-0.2961,-0.2956,-0.2942,-0.2897,-0.2873,-0.2902,-0.286,-0.2827,-0.2825,-0.2608,-0.2586,-0.2489,-0.2873,-0.2873,-0.2873,-0.2873,0,-0.2577,-0.2621,-0.2692,-0.272,-0.2788,-0.2831,-0.2883,-0.2913,-0.2954,-0.2984,-0.2985,-0.3001,-0.2977,-0.2979,-0.2941,-0.2913,-0.2936,-0.2856,-0.2842,-0.2631,-0.2611,-0.2469,-0.2481,-0.2875,-0.2875,-0.2874,-0.2874,0,-0.2565,-0.2607,-0.2675,-0.2755,-0.2785,-0.2828,-0.2908,-0.2941,-0.2976,-0.3017,-0.3027,-0.3042,-0.304,-0.3029,-0.3008,-0.2962,-0.286,-0.2924,-0.2691,-0.265,-0.249,-0.2517,-0.2528,-0.2477,-0.2903,-0.2903,-0.2903,0,-0.2567,-0.2594,-0.2689,-0.2736,-0.2773,-0.2843,-0.289,-0.2945,-0.2975,-0.3028,-0.3044,-0.3065,-0.3045,-0.3033,-0.2944,-0.2903,-0.2847,-0.269,-0.2602,-0.2471,-0.249,-0.2529,-0.2487,-0.2347,-0.2342,-0.2338,-0.2335,0,-0.2566,-0.2588,-0.2639,-0.2737,-0.2795,-0.2861,-0.2922,-0.2943,-0.2991,-0.3011,-0.3009,-0.2996,-0.2964,-0.2789,-0.2757,-0.2701,-0.2559,-0.2614,-0.2504,-0.2089,-0.2096,-0.2038,-0.235,-0.23,-0.2304,-0.2306,-0.2308,-0.231,-0.2563,-0.2587,-0.2646,-0.2733,-0.2808,-0.2843,-0.2813,-0.2866,-0.2873,-0.2811,-0.2894,-0.2755,-0.2588,-0.2485,-0.2442,-0.2166,-0.2373,-0.2031,-0.2092,-0.2157,-0.2052,-0.2329,-0.2252,-0.2255,-0.2258,-0.226,-0.2263,0,-0.2548,-0.2566,-0.2643,-0.2714,-0.275,-0.2794,-0.2804,-0.2706,-0.2632,-0.2598,-0.2542,-0.2271,-0.2061,-0.1915,-0.1664,-0.1587,-0.1564,-0.1567,-0.1481,-0.1479,-0.1681,-0.1591,-0.1333,-0.1334,-0.1334,-0.1334,-0.1334,-0.1334,-0.2541,-0.2562,-0.2586,-0.2621,-0.2654,-0.2565,-0.2506,-0.2363,-0.226,-0.2022,-0.1829,-0.1777,-0.1581,-0.1425,-0.1166,-0.1126,-0.1105,-0.1123,-0.1264,-0.1271,-0.1314,-0.1356,-0.1266,-0.0944,-0.0944,-0.0889,-0.0889,-0.0889]},{"header":{"parameterUnit":"m.s-1","parameterCategory":2,"la1":30.2991,"la2":30.254,"lo1":-89.0895,"lo2":-89.0444,"dy":0.0017,"dx":0.0017,"nx":28,"ny":28,"refTime":"2024-10-10T09:00:00:Z","depth":"0","parameterNumber":3,"parameterNumberName":"V-component_of_CURRENTS"},"data":[0,0,0,0,0,0,0,0,0,0,0,0,0,0,0,0,0,0,0,0,0,0,0,0,0,0,0,0,0,0,0,0,0,0,0,0,0,0,0,0,0,0,0,0,0,0,0,0,0,0,0,0,0,0,0,0,0,0,-0.0856,-0.0855,0,-0.0749,-0.0748,-0.0746,-0.066,-0.0659,-0.0658,-0.0658,-0.0508,-0.0505,-0.0502,0,0,0,0,0,0,0,0,0,0,0,0,0,-0.0947,-0.0946,-0.0856,-0.0855,-0.0854,-0.0749,-0.0748,-0.0746,-0.066,-0.0659,-0.0658,-0.0658,-0.051,-0.0506,-0.0502,0,0,0,0,0,0,0,0,0,0,0,0,0,-0.0879,-0.0946,-0.0856,-0.08,-0.0794,-0.075,-0.0748,-0.0746,-0.066,-0.0659,-0.0658,-0.0657,-0.0511,-0.0506,-0.0501,-0.049,0,0,-0.0486,-0.0484,0,0,0,0,0,0,0,0,-0.0883,-0.0875,-0.0809,-0.0804,-0.0797,-0.0719,-0.0725,-0.0659,-0.066,-0.0709,-0.0658,-0.0657,-0.0577,-0.0567,-0.0546,-0.0483,-0.0477,-0.0485,-0.0482,-0.048,-0.0479,0,0,0,0,0,0,0,-0.0888,-0.0879,-0.0811,-0.0808,-0.0801,-0.0767,-0.0756,-0.0712,-0.0647,-0.0704,-0.0698,-0.069,-0.0573,-0.0551,-0.0542,-0.0475,-0.0485,-0.0481,-0.0478,-0.0476,-0.0381,-0.0381,0,0,0,0,0,0,-0.0909,-0.0884,-0.0815,-0.0808,-0.0841,-0.0767,-0.0754,-0.0743,-0.0648,-0.0634,-0.0691,-0.0687,-0.056,-0.0548,-0.0536,-0.05,-0.048,-0.0475,-0.0473,-0.038,-0.0381,-0.0382,0,0,0,0,0,0,-0.0911,-0.0903,-0.0819,-0.0846,-0.0833,-0.0767,-0.0754,-0.0742,-0.0719,-0.064,-0.0624,-0.0683,-0.0559,-0.0543,-0.0504,-0.0494,-0.0473,-0.0469,-0.038,-0.0381,-0.0381,-0.0438,0,0,0,0,0,0,-0.0914,-0.0905,-0.0908,-0.0847,-0.0832,-0.0804,-0.0755,-0.074,-0.0717,-0.071,-0.0627,-0.0612,-0.0557,-0.0512,-0.0499,-0.0487,-0.0465,-0.0379,-0.038,-0.0381,-0.0436,-0.0441,-0.0445,0,0,0,0,0,-0.0917,-0.0928,-0.0908,-0.09,-0.0837,-0.0805,-0.0795,-0.0742,-0.0718,-0.0717,-0.0661,-0.0614,-0.0508,-0.0509,-0.0494,-0.0479,-0.0379,-0.038,-0.0381,-0.0433,-0.044,-0.0445,0,0,0,0,0,0,-0.0966,-0.0918,-0.0896,-0.089,-0.0856,-0.0792,-0.0787,-0.0753,-0.0708,-0.0698,-0.0623,-0.0604,-0.0561,-0.0524,-0.0527,-0.0457,-0.0435,-0.0433,-0.048,-0.0485,-0.049,-0.0505,-0.046,0,0,0,0,0,-0.0981,-0.0975,-0.0925,-0.0921,-0.0909,-0.0851,-0.0833,-0.0797,-0.0749,-0.0727,-0.0671,-0.0611,-0.0554,-0.0526,-0.0474,-0.0444,-0.0429,-0.0425,-0.043,-0.0434,-0.0437,-0.0423,-0.0427,-0.0385,-0.0385,-0.0385,0,0,-0.0999,-0.0973,-0.0969,-0.0932,-0.09,-0.0882,-0.0837,-0.0815,-0.0791,-0.0719,-0.0678,-0.0625,-0.0551,-0.0507,-0.0485,-0.0475,-0.0441,-0.0435,-0.0439,-0.044,-0.0425,-0.0429,-0.0433,-0.0386,-0.0386,-0.0386,0,0,-0.1027,-0.101,-0.1011,-0.0988,-0.095,-0.0914,-0.0914,-0.0857,-0.0824,-0.079,-0.0721,-0.0673,-0.06,-0.0537,-0.0497,-0.0503,-0.0465,-0.0485,-0.0517,-0.0504,-0.0507,-0.051,-0.0509,-0.0511,-0.0488,-0.0489,-0.0489,0,-0.1048,-0.1039,-0.1008,-0.1,-0.0984,-0.0934,-0.0927,-0.089,-0.0826,-0.0801,-0.0789,-0.0674,-0.0611,-0.0541,-0.0536,-0.051,-0.0508,-0.0499,-0.0511,-0.0513,-0.0515,-0.0513,-0.0514,-0.0491,-0.0491,-0.0491,-0.0491,0,-0.1068,-0.1063,-0.1066,-0.1036,-0.1018,-0.1009,-0.0956,-0.0933,-0.0897,-0.0854,-0.0796,-0.0722,-0.0654,-0.0623,-0.0576,-0.0545,-0.0541,-0.0519,-0.0499,-0.0523,-0.0519,-0.052,-0.0496,-0.0495,-0.0494,-0.0493,0,0,-0.11,-0.1083,-0.1082,-0.1078,-0.1036,-0.1023,-0.0992,-0.0947,-0.0929,-0.0875,-0.085,-0.0749,-0.0716,-0.067,-0.0606,-0.0588,-0.0593,-0.0566,-0.0564,-0.0569,-0.0582,-0.05,-0.0493,-0.0579,-0.058,-0.058,-0.0579,0,-0.112,-0.1131,-0.1104,-0.1105,-0.1106,-0.1055,-0.1034,-0.0987,-0.0947,-0.0917,-0.0839,-0.0794,-0.0731,-0.0706,-0.0675,-0.0612,-0.0596,-0.0596,-0.0553,-0.0552,-0.0479,-0.049,-0.0389,-0.0372,-0.0579,-0.0579,-0.0579,0,-0.1139,-0.1146,-0.1161,-0.1145,-0.1139,-0.1129,-0.1092,-0.1063,-0.1002,-0.0974,-0.092,-0.0866,-0.0804,-0.0767,-0.0686,-0.0695,-0.0643,-0.0604,-0.0602,-0.0504,-0.047,-0.0377,-0.0365,-0.0227,-0.058,-0.058,-0.058,0,-0.1184,-0.1179,-0.1199,-0.1194,-0.117,-0.1159,-0.1137,-0.1083,-0.1067,-0.1014,-0.1013,-0.093,-0.0903,-0.0833,-0.0727,-0.072,-0.0659,-0.0637,-0.0516,-0.0511,-0.0402,-0.0386,-0.0249,-0.0592,-0.0592,-0.0592,-0.0592,0,-0.1217,-0.1228,-0.1228,-0.1239,-0.1256,-0.1212,-0.1215,-0.1177,-0.1142,-0.1141,-0.1051,-0.1041,-0.0923,-0.0861,-0.0767,-0.064,-0.0687,-0.0522,-0.05,-0.0419,-0.0405,-0.0261,-0.023,-0.0592,-0.0592,-0.0592,-0.0592,0,-0.1263,-0.1262,-0.1287,-0.1284,-0.1282,-0.1295,-0.1275,-0.128,-0.1234,-0.1237,-0.1228,-0.1139,-0.1053,-0.0924,-0.081,-0.0687,-0.0482,-0.0518,-0.0432,-0.0397,-0.0139,-0.0117,0.0002,0.0069,-0.0393,-0.0391,-0.0389,0,-0.1284,-0.131,-0.1338,-0.1363,-0.1364,-0.1374,-0.1385,-0.1336,-0.1343,-0.1297,-0.1312,-0.1222,-0.1156,-0.094,-0.0697,-0.0507,-0.0419,-0.0296,-0.0241,-0.0104,-0.0064,-0.0058,-0.0012,-0.0135,-0.0131,-0.0128,-0.0125,0,-0.133,-0.135,-0.1383,-0.1449,-0.1474,-0.1496,-0.1504,-0.1521,-0.1474,-0.1467,-0.1445,-0.1387,-0.1125,-0.084,-0.0539,-0.0402,-0.0171,-0.0226,-0.0102,0.014,0.0172,0.024,-0.0175,-0.0098,-0.0101,-0.0103,-0.0104,-0.0106,-0.1371,-0.1419,-0.1479,-0.1539,-0.1577,-0.1619,-0.1629,-0.1638,-0.1648,-0.1598,-0.1544,-0.135,-0.0911,-0.046,-0.0317,0.0125,0.0024,0.0263,0.027,0.0256,0.0361,0.0006,0.0127,0.0125,0.0124,0.0123,0.0122,0,-0.1432,-0.149,-0.1559,-0.1636,-0.1696,-0.1682,-0.1711,-0.1697,-0.1711,-0.1578,-0.1517,-0.0939,-0.0536,-0.0108,0.0453,0.0631,0.0649,0.0704,0.0744,0.076,0.045,0.0508,0.0741,0.0741,0.0741,0.074,0.074,0.074,-0.147,-0.1563,-0.1609,-0.1728,-0.1769,-0.1806,-0.1809,-0.1767,-0.1643,-0.1354,-0.0972,-0.067,-0.0053,0.0582,0.1024,0.106,0.1149,0.1141,0.1141,0.0954,0.0914,0.0875,0.0942,0.1261,0.1262,0.1487,0.149,0.1492]}],[{"header":{"parameterUnit":"m.s-1","parameterCategory":2,"la1":30.2991,"la2":30.254,"lo1":-89.0895,"lo2":-89.0444,"dy":0.0017,"dx":0.0017,"nx":28,"ny":28,"refTime":"2024-10-10T09:00:00:Z","depth":"2","parameterNumber":2,"parameterNumberName":"U-component_of_CURRENTS"},"data":[0,0,0,0,0,0,0,0,0,0,0,0,0,0,0,0,0,0,0,0,0,0,0,0,0,0,0,0,0,0,0,0,0,0,0,0,0,0,0,0,0,0,0,0,0,0,0,0,0,0,0,0,0,0,0,0,0,0,-0.1676,-0.1677,0,-0.1742,-0.1742,-0.1743,-0.1747,-0.1747,-0.1746,-0.1746,-0.1743,-0.1743,-0.1743,0,0,0,0,0,0,0,0,0,0,0,0,0,-0.1535,-0.1537,-0.1676,-0.1677,-0.1678,-0.1741,-0.1742,-0.1743,-0.1747,-0.1747,-0.1746,-0.1746,-0.1742,-0.1743,-0.1743,0,0,0,0,0,0,0,0,0,0,0,0,0,-0.1595,-0.1538,-0.1676,-0.1691,-0.1693,-0.1741,-0.1742,-0.1743,-0.1747,-0.1747,-0.1746,-0.1745,-0.1742,-0.1743,-0.1743,-0.1759,0,0,-0.1745,-0.1745,0,0,0,0,0,0,0,0,-0.1591,-0.1599,-0.1687,-0.169,-0.1692,-0.1738,-0.1691,-0.1746,-0.1747,-0.1723,-0.1746,-0.1745,-0.1737,-0.1738,-0.1748,-0.1759,-0.1759,-0.1745,-0.1745,-0.1745,-0.1745,0,0,0,0,0,0,0,-0.1587,-0.1596,-0.1699,-0.1689,-0.1692,-0.1687,-0.1695,-0.1702,-0.1729,-0.1725,-0.1726,-0.1739,-0.1738,-0.1748,-0.1748,-0.1759,-0.1745,-0.1745,-0.1746,-0.1746,-0.1761,-0.1761,0,0,0,0,0,0,-0.1588,-0.1593,-0.1697,-0.1701,-0.1643,-0.169,-0.1699,-0.1722,-0.1731,-0.1733,-0.174,-0.1739,-0.1747,-0.1748,-0.1748,-0.1737,-0.1745,-0.1746,-0.1746,-0.1761,-0.1761,-0.1762,0,0,0,0,0,0,-0.1585,-0.1597,-0.1694,-0.165,-0.1662,-0.1694,-0.1719,-0.1723,-0.1733,-0.1743,-0.1743,-0.1745,-0.1747,-0.1747,-0.1756,-0.1738,-0.1746,-0.1746,-0.1761,-0.1761,-0.1761,-0.1734,0,0,0,0,0,0,-0.1581,-0.1596,-0.1606,-0.1651,-0.1665,-0.1719,-0.172,-0.1725,-0.1743,-0.1743,-0.1748,-0.1747,-0.1746,-0.1756,-0.1757,-0.1739,-0.1747,-0.1761,-0.1761,-0.1761,-0.1735,-0.1734,-0.1732,0,0,0,0,0,-0.1575,-0.1597,-0.1606,-0.1619,-0.1681,-0.1719,-0.1726,-0.1743,-0.1744,-0.1748,-0.1755,-0.1747,-0.1757,-0.1757,-0.1758,-0.1739,-0.1761,-0.1761,-0.1761,-0.1736,-0.1734,-0.1732,0,0,0,0,0,0,-0.1534,-0.1602,-0.1612,-0.1651,-0.1679,-0.1721,-0.1731,-0.1744,-0.1756,-0.1755,-0.1756,-0.1757,-0.1751,-0.1759,-0.1758,-0.1746,-0.1755,-0.1755,-0.1735,-0.1733,-0.1732,-0.1718,-0.1747,0,0,0,0,0,-0.1534,-0.1565,-0.162,-0.1643,-0.1663,-0.1695,-0.1712,-0.1729,-0.175,-0.1754,-0.1759,-0.1762,-0.1755,-0.1756,-0.1756,-0.1759,-0.1789,-0.1747,-0.1746,-0.1745,-0.1735,-0.1745,-0.1743,-0.1762,-0.1762,-0.1762,0,0,-0.1517,-0.1561,-0.1574,-0.1635,-0.1659,-0.1691,-0.1702,-0.1733,-0.1742,-0.1752,-0.1759,-0.1757,-0.1755,-0.175,-0.1748,-0.1754,-0.177,-0.1745,-0.1744,-0.1735,-0.1745,-0.1743,-0.1741,-0.1763,-0.1763,-0.1763,0,0,-0.1514,-0.1547,-0.1578,-0.1611,-0.1662,-0.1683,-0.1693,-0.1738,-0.1738,-0.1758,-0.1751,-0.1741,-0.1756,-0.1737,-0.1731,-0.1726,-0.1759,-0.1729,-0.1712,-0.1721,-0.1719,-0.1718,-0.1817,-0.1824,-0.1732,-0.1731,-0.1731,0,-0.1491,-0.1547,-0.1586,-0.163,-0.165,-0.168,-0.1707,-0.1718,-0.1753,-0.1734,-0.1757,-0.1739,-0.1742,-0.1705,-0.1708,-0.1717,-0.1765,-0.1715,-0.1718,-0.1717,-0.1715,-0.1817,-0.1825,-0.173,-0.173,-0.173,-0.1731,0,-0.1521,-0.1563,-0.1582,-0.1645,-0.1664,-0.1694,-0.1721,-0.1715,-0.1721,-0.1726,-0.1698,-0.171,-0.1696,-0.1692,-0.1703,-0.1682,-0.1738,-0.1711,-0.1719,-0.1711,-0.182,-0.183,-0.1728,-0.1729,-0.1729,-0.173,0,0,-0.1467,-0.1584,-0.1584,-0.1611,-0.1677,-0.1687,-0.1685,-0.168,-0.1656,-0.1676,-0.1655,-0.1637,-0.1641,-0.1636,-0.164,-0.1648,-0.1708,-0.1684,-0.1685,-0.1779,-0.1806,-0.175,-0.1756,-0.1682,-0.1682,-0.1682,-0.1909,0,-0.1472,-0.1557,-0.1601,-0.1634,-0.1677,-0.1682,-0.1673,-0.166,-0.1652,-0.1641,-0.1624,-0.163,-0.1622,-0.1636,-0.163,-0.169,-0.1721,-0.1654,-0.1802,-0.1808,-0.1752,-0.1758,-0.1493,-0.1662,-0.1918,-0.192,-0.1921,0,-0.148,-0.154,-0.1601,-0.1636,-0.1645,-0.1661,-0.1618,-0.1619,-0.1594,-0.1592,-0.1574,-0.1592,-0.1615,-0.1618,-0.1697,-0.1662,-0.1731,-0.1776,-0.1785,-0.1736,-0.1764,-0.1697,-0.1669,-0.1937,-0.1936,-0.1934,-0.1933,0,-0.1434,-0.1514,-0.1558,-0.1583,-0.1639,-0.1625,-0.1629,-0.16,-0.1584,-0.1589,-0.162,-0.1604,-0.1692,-0.1698,-0.1818,-0.1765,-0.1943,-0.1877,-0.1894,-0.1897,-0.1698,-0.168,-0.192,-0.192,-0.192,-0.1919,-0.1918,0,-0.1433,-0.145,-0.1546,-0.1577,-0.1573,-0.1615,-0.1581,-0.1576,-0.1584,-0.1604,-0.162,-0.1675,-0.172,-0.1827,-0.1852,-0.1938,-0.198,-0.1897,-0.1925,-0.169,-0.1669,-0.1907,-0.1902,-0.1928,-0.1926,-0.1924,-0.1923,0,-0.1383,-0.1457,-0.1504,-0.1569,-0.1574,-0.1574,-0.1583,-0.1537,-0.1604,-0.1652,-0.1685,-0.1789,-0.1934,-0.1997,-0.2103,-0.2041,-0.2085,-0.2111,-0.1885,-0.1876,-0.2029,-0.2021,-0.2101,-0.21,-0.21,-0.2099,-0.2099,0,-0.1371,-0.1407,-0.1488,-0.1491,-0.1526,-0.1528,-0.1493,-0.1531,-0.152,-0.1724,-0.1751,-0.1956,-0.2037,-0.2185,-0.2104,-0.2129,-0.2207,-0.1919,-0.1699,-0.2016,-0.2036,-0.2029,-0.2021,-0.1484,-0.1478,-0.1474,-0.147,0,-0.133,-0.1368,-0.141,-0.1441,-0.1432,-0.1395,-0.1402,-0.142,-0.1511,-0.1611,-0.1796,-0.1907,-0.2055,-0.1932,-0.1976,-0.1935,-0.1857,-0.1826,-0.2217,-0.1454,-0.1443,-0.1461,-0.1472,-0.1431,-0.1435,-0.1438,-0.144,-0.1442,-0.1269,-0.1289,-0.1349,-0.1358,-0.1329,-0.1283,-0.1266,-0.1301,-0.1353,-0.1513,-0.1698,-0.178,-0.1797,-0.1667,-0.163,-0.1557,-0.1676,-0.1523,-0.1533,-0.1548,-0.141,-0.1394,-0.1356,-0.1359,-0.1362,-0.1365,-0.1367,0,-0.1175,-0.1221,-0.1237,-0.1235,-0.1157,-0.117,-0.1186,-0.1181,-0.1258,-0.1359,-0.149,-0.1362,-0.1259,-0.1316,-0.1087,-0.1048,-0.0998,-0.1028,-0.0916,-0.0954,-0.0988,-0.0818,-0.061,-0.0609,-0.0607,-0.0606,0,0,-0.1146,-0.1118,-0.1147,-0.1053,-0.103,-0.0936,-0.0947,-0.0998,-0.1064,-0.1117,-0.1096,-0.1177,-0.1212,-0.0888,-0.0828,-0.0686,-0.0828,-0.0649,-0.1242,-0.1147,-0.118,-0.1245,-0.1023,0,0,0,0,0]},{"header":{"parameterUnit":"m.s-1","parameterCategory":2,"la1":30.2991,"la2":30.254,"lo1":-89.0895,"lo2":-89.0444,"dy":0.0017,"dx":0.0017,"nx":28,"ny":28,"refTime":"2024-10-10T09:00:00:Z","depth":"2","parameterNumber":3,"parameterNumberName":"V-component_of_CURRENTS"},"data":[0,0,0,0,0,0,0,0,0,0,0,0,0,0,0,0,0,0,0,0,0,0,0,0,0,0,0,0,0,0,0,0,0,0,0,0,0,0,0,0,0,0,0,0,0,0,0,0,0,0,0,0,0,0,0,0,0,0,0.0423,0.0424,0,0.0502,0.0503,0.0504,0.0534,0.0534,0.0533,0.0533,0.0588,0.059,0.0591,0,0,0,0,0,0,0,0,0,0,0,0,0,0.0374,0.0374,0.0423,0.0424,0.0425,0.0502,0.0503,0.0504,0.0534,0.0534,0.0533,0.0533,0.0587,0.0589,0.0591,0,0,0,0,0,0,0,0,0,0,0,0,0,0.0419,0.0374,0.0423,0.0449,0.0452,0.0501,0.0503,0.0504,0.0534,0.0534,0.0533,0.0533,0.0587,0.0589,0.0592,0.0617,0,0,0.06,0.0601,0,0,0,0,0,0,0,0,0.0416,0.042,0.0444,0.0447,0.045,0.0507,0.0506,0.054,0.0534,0.0503,0.0533,0.0532,0.0558,0.0563,0.0581,0.0619,0.0622,0.06,0.0602,0.0603,0.0603,0,0,0,0,0,0,0,0.0413,0.0418,0.0455,0.0445,0.0449,0.0482,0.0487,0.0513,0.0533,0.0506,0.0508,0.0516,0.056,0.0578,0.0582,0.0622,0.06,0.0602,0.0604,0.0605,0.0714,0.0715,0,0,0,0,0,0,0.0398,0.0414,0.0453,0.0457,0.0431,0.0483,0.0489,0.049,0.0533,0.0539,0.0516,0.0517,0.0574,0.0579,0.0584,0.0608,0.0603,0.0605,0.0607,0.0713,0.0714,0.0716,0,0,0,0,0,0,0.0397,0.04,0.0449,0.0438,0.0446,0.0483,0.0485,0.0492,0.0505,0.0541,0.0547,0.0522,0.0574,0.058,0.0621,0.0611,0.0606,0.0609,0.0711,0.0713,0.0715,0.0662,0,0,0,0,0,0,0.0395,0.0399,0.0391,0.0436,0.0446,0.0465,0.0486,0.0493,0.0511,0.0513,0.0548,0.0553,0.0574,0.0617,0.0623,0.0614,0.0611,0.0709,0.0712,0.0714,0.0662,0.0662,0.0662,0,0,0,0,0,0.0393,0.0379,0.039,0.0394,0.0434,0.0465,0.0473,0.0499,0.0511,0.0512,0.0555,0.0552,0.0637,0.062,0.0627,0.0619,0.0708,0.0711,0.0714,0.0662,0.0662,0.0662,0,0,0,0,0,0,0.0352,0.0383,0.0395,0.0391,0.042,0.0469,0.047,0.0497,0.0532,0.0535,0.0571,0.058,0.0614,0.0634,0.0615,0.0663,0.0671,0.0676,0.0629,0.0629,0.0629,0.0587,0.0613,0,0,0,0,0,0.034,0.0333,0.0377,0.037,0.0383,0.0428,0.0443,0.0466,0.0506,0.052,0.0553,0.0594,0.0634,0.0644,0.0684,0.0705,0.0705,0.0708,0.0707,0.0707,0.0682,0.07,0.0697,0.0726,0.0726,0.0726,0,0,0.0318,0.0335,0.0329,0.036,0.0384,0.04,0.0435,0.0454,0.0468,0.0521,0.0547,0.0596,0.0645,0.0677,0.0691,0.0686,0.07,0.0711,0.0709,0.0684,0.0702,0.0699,0.0696,0.0728,0.0727,0.0727,0,0,0.0277,0.0291,0.0276,0.0304,0.034,0.0371,0.0375,0.0429,0.0448,0.0492,0.0537,0.058,0.0638,0.0666,0.069,0.0714,0.0708,0.0731,0.068,0.0698,0.0694,0.0691,0.0679,0.0675,0.0719,0.0719,0.0719,0,0.0252,0.0244,0.0277,0.0284,0.0299,0.0355,0.0356,0.0389,0.0451,0.0449,0.0491,0.0573,0.0629,0.0644,0.0671,0.0706,0.0707,0.0669,0.0692,0.0689,0.0687,0.0675,0.0672,0.0717,0.0717,0.0718,0.0718,0,0.0209,0.0212,0.0208,0.0231,0.0252,0.0262,0.0316,0.0328,0.0368,0.0396,0.0427,0.0517,0.0551,0.0592,0.0647,0.0655,0.0658,0.0695,0.0678,0.068,0.0669,0.0666,0.0714,0.0715,0.0715,0.0716,0,0,0.0137,0.0169,0.0166,0.0171,0.0227,0.0236,0.0248,0.0261,0.0243,0.0316,0.0307,0.0407,0.0441,0.0473,0.0541,0.0572,0.0586,0.0626,0.0628,0.0586,0.0598,0.0605,0.0602,0.0625,0.0624,0.0624,0.0592,0,0.0094,0.0078,0.0114,0.0108,0.0112,0.016,0.0161,0.0179,0.0208,0.0218,0.0286,0.0327,0.0398,0.0434,0.0468,0.058,0.0578,0.0589,0.0626,0.0626,0.061,0.0599,0.0599,0.0572,0.059,0.0589,0.0589,0,0.0044,0.0043,0.0018,0.0039,0.0041,0.0048,0.0034,0.0053,0.0071,0.0092,0.0115,0.0183,0.0251,0.0331,0.0424,0.0428,0.0492,0.0563,0.0564,0.058,0.0627,0.058,0.0566,0.0584,0.0584,0.0585,0.0585,0,-0.0037,-0.0021,-0.0055,-0.0042,-0.0013,-0.0027,-0.0007,-0.0001,-0.0007,0.0024,0.0031,0.0084,0.0156,0.0231,0.0352,0.0407,0.0434,0.0531,0.0564,0.0564,0.0574,0.0576,0.055,0.055,0.055,0.055,0.055,0,-0.0094,-0.0111,-0.0096,-0.011,-0.0146,-0.009,-0.0132,-0.0116,-0.01,-0.0118,-0.0028,-0.002,0.0144,0.0181,0.0287,0.0384,0.0364,0.0533,0.0556,0.0558,0.0559,0.0585,0.0589,0.0549,0.0549,0.055,0.055,0,-0.0169,-0.0161,-0.0191,-0.0185,-0.0183,-0.0203,-0.0187,-0.0224,-0.0184,-0.0194,-0.0175,-0.0086,-0.0015,0.0065,0.0196,0.0313,0.0398,0.0412,0.0382,0.0403,0.0542,0.0544,0.0516,0.0516,0.0516,0.0516,0.0516,0,-0.0202,-0.0235,-0.0262,-0.0283,-0.0276,-0.029,-0.0313,-0.0277,-0.0298,-0.0246,-0.0254,-0.0185,-0.0157,-0.0009,0.0173,0.0288,0.0302,0.0392,0.0526,0.0513,0.0538,0.0541,0.0543,0.0513,0.0513,0.0513,0.0513,0,-0.0266,-0.0296,-0.033,-0.038,-0.0406,-0.0432,-0.0436,-0.0465,-0.0424,-0.0417,-0.0387,-0.035,-0.0188,-0.0014,0.0138,0.0231,0.0393,0.0403,0.037,0.0529,0.051,0.0535,0.0538,0.0513,0.0513,0.0513,0.0513,0.0513,-0.0324,-0.0372,-0.0433,-0.0482,-0.0513,-0.0553,-0.059,-0.0588,-0.0609,-0.0559,-0.0491,-0.0371,-0.0183,0.0094,0.0186,0.0343,0.0395,0.0511,0.0512,0.0512,0.0524,0.0508,0.0509,0.0509,0.0509,0.0509,0.0509,0,-0.0388,-0.0456,-0.0518,-0.0577,-0.063,-0.0615,-0.0672,-0.0703,-0.0732,-0.0605,-0.0544,-0.0308,-0.0098,0.0066,0.033,0.0487,0.0494,0.0506,0.0507,0.0507,0.0507,0.052,0.0504,0.0504,0.0503,0.0503,0,0,-0.0447,-0.0518,-0.0563,-0.067,-0.0703,-0.0771,-0.0812,-0.0837,-0.078,-0.0684,-0.0511,-0.0291,-0.006,0.0133,0.028,0.0397,0.041,0.0402,0.04,0.0382,0.038,0.0511,0.0531,0,0,0,0,0]}],[{"header":{"parameterUnit":"m.s-1","parameterCategory":2,"la1":30.2991,"la2":30.254,"lo1":-89.0895,"lo2":-89.0444,"dy":0.0017,"dx":0.0017,"nx":28,"ny":28,"refTime":"2024-10-10T09:00:00:Z","depth":"4","parameterNumber":2,"parameterNumberName":"U-component_of_CURRENTS"},"data":[0,0,0,0,0,0,0,0,0,0,0,0,0,0,0,0,0,0,0,0,0,0,0,0,0,0,0,0,0,0,0,0,0,0,0,0,0,0,0,0,0,0,0,0,0,0,0,0,0,0,0,0,0,0,0,0,0,0,-0.0677,-0.0677,0,-0.0733,-0.0734,-0.0735,-0.0753,-0.0753,-0.0753,-0.0752,-0.082,-0.0822,-0.0824,0,0,0,0,0,0,0,0,0,0,0,0,0,-0.0608,-0.0609,-0.0677,-0.0677,-0.0678,-0.0733,-0.0734,-0.0735,-0.0753,-0.0753,-0.0753,-0.0752,-0.0819,-0.0822,-0.0824,0,0,0,0,0,0,0,0,0,0,0,0,0,-0.0649,-0.061,-0.0676,-0.0694,-0.0696,-0.0733,-0.0734,-0.0735,-0.0753,-0.0753,-0.0753,-0.0752,-0.0819,-0.0822,-0.0825,-0.0851,0,0,-0.0834,-0.0835,0,0,0,0,0,0,0,0,-0.0646,-0.0651,-0.0691,-0.0693,-0.0695,-0.0736,-0.0735,-0.0774,-0.0753,-0.0732,-0.0752,-0.0752,-0.0793,-0.0798,-0.081,-0.0854,-0.0857,-0.0834,-0.0836,-0.0837,-0.0838,0,0,0,0,0,0,0,-0.0644,-0.0649,-0.0699,-0.0691,-0.0694,-0.0707,-0.0712,-0.0742,-0.0764,-0.0734,-0.0735,-0.0741,-0.0794,-0.0807,-0.0812,-0.0858,-0.0834,-0.0837,-0.0839,-0.084,-0.095,-0.0951,0,0,0,0,0,0,-0.0636,-0.0646,-0.0697,-0.0701,-0.0669,-0.0708,-0.0714,-0.0723,-0.0764,-0.0769,-0.0741,-0.0742,-0.0802,-0.0808,-0.0814,-0.0866,-0.0837,-0.084,-0.0842,-0.0949,-0.0951,-0.0952,0,0,0,0,0,0,-0.0634,-0.064,-0.0695,-0.0674,-0.0682,-0.071,-0.072,-0.0724,-0.0747,-0.077,-0.0775,-0.076,-0.0802,-0.081,-0.0852,-0.0868,-0.0842,-0.0844,-0.0948,-0.095,-0.0951,-0.096,0,0,0,0,0,0,-0.0632,-0.0639,-0.0643,-0.0674,-0.0683,-0.0726,-0.072,-0.0726,-0.075,-0.0752,-0.0787,-0.0792,-0.0802,-0.0848,-0.0855,-0.0872,-0.0847,-0.0947,-0.0949,-0.0951,-0.0958,-0.0961,-0.0964,0,0,0,0,0,-0.0629,-0.0635,-0.0643,-0.0649,-0.0688,-0.0727,-0.0733,-0.0751,-0.0752,-0.0768,-0.0791,-0.0792,-0.0866,-0.0851,-0.086,-0.0878,-0.0946,-0.0948,-0.095,-0.0957,-0.0961,-0.0964,0,0,0,0,0,0,-0.0606,-0.0639,-0.0647,-0.0663,-0.0697,-0.073,-0.0743,-0.0759,-0.079,-0.0791,-0.081,-0.0818,-0.0858,-0.0872,-0.0856,-0.0916,-0.0904,-0.0909,-0.0906,-0.091,-0.0913,-0.0906,-0.0849,0,0,0,0,0,-0.0604,-0.0617,-0.0655,-0.0668,-0.0684,-0.0717,-0.0734,-0.0751,-0.0782,-0.0795,-0.0824,-0.085,-0.0875,-0.0895,-0.0919,-0.096,-0.0952,-0.0977,-0.098,-0.0983,-0.0983,-0.098,-0.0982,-0.096,-0.096,-0.096,0,0,-0.0595,-0.0617,-0.0623,-0.0664,-0.0688,-0.0718,-0.0727,-0.0759,-0.0786,-0.0799,-0.0845,-0.0864,-0.0887,-0.0926,-0.0945,-0.0941,-0.0985,-0.0986,-0.0987,-0.0987,-0.0983,-0.0985,-0.0986,-0.0961,-0.0961,-0.0961,0,0,-0.0591,-0.061,-0.0622,-0.0655,-0.0697,-0.0722,-0.0734,-0.0782,-0.0804,-0.0853,-0.0861,-0.0888,-0.0943,-0.0955,-0.0967,-0.1006,-0.0998,-0.1021,-0.1037,-0.1034,-0.1035,-0.1036,-0.1025,-0.1025,-0.1027,-0.1027,-0.1027,0,-0.0578,-0.0604,-0.0633,-0.0661,-0.0688,-0.0725,-0.0754,-0.0784,-0.0841,-0.0867,-0.0869,-0.0935,-0.0951,-0.0986,-0.0998,-0.1011,-0.1009,-0.1017,-0.1036,-0.1037,-0.1037,-0.1026,-0.1026,-0.1028,-0.1028,-0.1028,-0.1027,0,-0.0585,-0.0614,-0.0627,-0.0673,-0.0707,-0.074,-0.0788,-0.0829,-0.0861,-0.0892,-0.0942,-0.0962,-0.1,-0.101,-0.1017,-0.104,-0.1036,-0.1033,-0.102,-0.104,-0.1027,-0.1026,-0.1029,-0.1028,-0.1028,-0.1028,0,0,-0.0537,-0.0616,-0.062,-0.0655,-0.072,-0.0752,-0.0803,-0.0863,-0.0899,-0.0943,-0.0983,-0.1018,-0.103,-0.1044,-0.1054,-0.1055,-0.1054,-0.1053,-0.1053,-0.1031,-0.1046,-0.0999,-0.0994,-0.1057,-0.1057,-0.1058,-0.1033,0,-0.0535,-0.0584,-0.0628,-0.0686,-0.0721,-0.0783,-0.0832,-0.089,-0.0936,-0.0984,-0.1004,-0.1039,-0.1042,-0.1057,-0.1061,-0.1058,-0.1055,-0.106,-0.104,-0.1039,-0.0986,-0.0992,-0.1058,-0.1033,-0.1032,-0.1032,-0.1032,0,-0.052,-0.0566,-0.0615,-0.0712,-0.0733,-0.0772,-0.0861,-0.0912,-0.0983,-0.1018,-0.1052,-0.1069,-0.1085,-0.1075,-0.1073,-0.1081,-0.1067,-0.1056,-0.1055,-0.1006,-0.0991,-0.1011,-0.1031,-0.1031,-0.1031,-0.1031,-0.1032,0,-0.0467,-0.0555,-0.0596,-0.0628,-0.0736,-0.0778,-0.0835,-0.0919,-0.0968,-0.1029,-0.1055,-0.1084,-0.1089,-0.1084,-0.1071,-0.1075,-0.1055,-0.1054,-0.0995,-0.0992,-0.1037,-0.1036,-0.1042,-0.1042,-0.1042,-0.1042,-0.1043,0,-0.044,-0.0476,-0.0579,-0.0604,-0.0673,-0.0756,-0.0827,-0.089,-0.0967,-0.1012,-0.106,-0.1071,-0.1092,-0.1088,-0.1074,-0.1031,-0.1056,-0.0994,-0.0982,-0.1042,-0.1042,-0.1036,-0.1035,-0.1042,-0.1042,-0.1042,-0.1042,0,-0.0362,-0.0432,-0.0491,-0.0607,-0.0648,-0.0693,-0.0817,-0.0868,-0.0944,-0.0994,-0.1009,-0.106,-0.105,-0.106,-0.1042,-0.1022,-0.0991,-0.0969,-0.1028,-0.1021,-0.0929,-0.093,-0.0899,-0.0897,-0.0895,-0.0894,-0.0893,0,-0.033,-0.0345,-0.0465,-0.0517,-0.0571,-0.0659,-0.0725,-0.0837,-0.0885,-0.0971,-0.0979,-0.0999,-0.1019,-0.0957,-0.0973,-0.0945,-0.0936,-0.0925,-0.0931,-0.0923,-0.0914,-0.0918,-0.092,-0.089,-0.089,-0.0889,-0.0889,0,-0.0255,-0.0287,-0.0332,-0.0437,-0.0518,-0.062,-0.0713,-0.074,-0.0858,-0.0917,-0.093,-0.0932,-0.0919,-0.0909,-0.0898,-0.0877,-0.0938,-0.0908,-0.0912,-0.0917,-0.0912,-0.0906,-0.0911,-0.0883,-0.0884,-0.0885,-0.0885,0,-0.0191,-0.0185,-0.0249,-0.0342,-0.0457,-0.0564,-0.0629,-0.07,-0.0763,-0.0857,-0.0844,-0.0869,-0.09,-0.0872,-0.0855,-0.084,-0.0831,-0.082,-0.0828,-0.0834,-0.0827,-0.0812,-0.0737,0,0,0,0,0,-0.0131,-0.0108,-0.0167,-0.0289,-0.0415,-0.0493,-0.062,-0.0687,-0.0777,-0.0768,-0.0815,-0.0801,-0.0792,-0.0799,-0.0768,-0.082,-0.083,-0.0783,-0.0822,-0.0853,-0.0859,-0.0857,0,0,0,0,0,0,-0.009,-0.0097,-0.0115,-0.0235,-0.032,-0.0462,-0.0546,-0.062,-0.063,-0.0703,-0.0694,-0.0751,-0.0739,-0.0779,-0.0742,-0.0747,-0.0761,-0.0802,-0.0801,-0.0849,-0.0855,-0.086,-0.086,0,0,0,0,0]},{"header":{"parameterUnit":"m.s-1","parameterCategory":2,"la1":30.2991,"la2":30.254,"lo1":-89.0895,"lo2":-89.0444,"dy":0.0017,"dx":0.0017,"nx":28,"ny":28,"refTime":"2024-10-10T09:00:00:Z","depth":"4","parameterNumber":3,"parameterNumberName":"V-component_of_CURRENTS"},"data":[0,0,0,0,0,0,0,0,0,0,0,0,0,0,0,0,0,0,0,0,0,0,0,0,0,0,0,0,0,0,0,0,0,0,0,0,0,0,0,0,0,0,0,0,0,0,0,0,0,0,0,0,0,0,0,0,0,0,-0.0198,-0.0198,0,-0.0206,-0.0206,-0.0206,-0.0193,-0.0192,-0.0192,-0.0191,-0.0137,-0.0136,-0.0135,0,0,0,0,0,0,0,0,0,0,0,0,0,-0.0143,-0.0144,-0.0198,-0.0198,-0.0198,-0.0206,-0.0206,-0.0206,-0.0193,-0.0192,-0.0192,-0.0191,-0.0137,-0.0136,-0.0135,0,0,0,0,0,0,0,0,0,0,0,0,0,-0.0161,-0.0145,-0.0198,-0.0192,-0.0192,-0.0206,-0.0206,-0.0206,-0.0193,-0.0192,-0.0192,-0.0191,-0.0138,-0.0136,-0.0135,-0.014,0,0,-0.013,-0.013,0,0,0,0,0,0,0,0,-0.016,-0.0163,-0.0193,-0.0193,-0.0192,-0.0197,-0.0167,-0.0181,-0.0193,-0.0193,-0.0191,-0.0191,-0.0152,-0.0149,-0.0154,-0.0137,-0.0135,-0.013,-0.0129,-0.0129,-0.0128,0,0,0,0,0,0,0,-0.0159,-0.0162,-0.0202,-0.0193,-0.0193,-0.0179,-0.0182,-0.017,-0.0175,-0.0193,-0.0192,-0.0193,-0.0151,-0.0155,-0.0152,-0.0134,-0.013,-0.0129,-0.0128,-0.0127,-0.0114,-0.0115,0,0,0,0,0,0,-0.016,-0.0162,-0.0201,-0.0202,-0.0174,-0.0181,-0.0183,-0.0197,-0.0177,-0.0174,-0.0193,-0.0192,-0.0158,-0.0154,-0.015,-0.0138,-0.0129,-0.0127,-0.0126,-0.0114,-0.0114,-0.0115,0,0,0,0,0,0,-0.0159,-0.0164,-0.0201,-0.0181,-0.0184,-0.0183,-0.0198,-0.0197,-0.0198,-0.0178,-0.0173,-0.0193,-0.0157,-0.0152,-0.0139,-0.0136,-0.0127,-0.0125,-0.0113,-0.0114,-0.0115,-0.0124,0,0,0,0,0,0,-0.0158,-0.0164,-0.0175,-0.0181,-0.0186,-0.021,-0.0199,-0.0198,-0.0199,-0.0198,-0.0176,-0.0171,-0.0156,-0.0142,-0.0138,-0.0134,-0.0124,-0.0112,-0.0113,-0.0114,-0.0123,-0.0125,-0.0127,0,0,0,0,0,-0.0156,-0.0179,-0.0176,-0.0181,-0.0201,-0.021,-0.0211,-0.0207,-0.02,-0.0204,-0.0189,-0.0172,-0.0145,-0.0141,-0.0136,-0.0132,-0.0112,-0.0113,-0.0114,-0.0122,-0.0125,-0.0127,0,0,0,0,0,0,-0.016,-0.018,-0.0177,-0.0204,-0.0204,-0.0207,-0.0215,-0.0209,-0.0203,-0.0199,-0.0176,-0.0171,-0.0162,-0.0149,-0.0145,-0.0134,-0.0127,-0.0127,-0.0134,-0.0137,-0.0139,-0.0125,-0.0123,0,0,0,0,0,-0.0167,-0.0191,-0.0195,-0.0216,-0.0217,-0.0215,-0.0218,-0.0213,-0.0208,-0.0205,-0.0192,-0.0178,-0.0166,-0.0152,-0.0146,-0.0134,-0.0096,-0.0131,-0.0133,-0.0134,-0.0122,-0.0064,-0.0058,-0.0119,-0.0119,-0.0119,0,0,-0.0175,-0.0188,-0.0201,-0.0218,-0.0219,-0.0227,-0.0215,-0.0222,-0.0222,-0.02,-0.0199,-0.0187,-0.0167,-0.0159,-0.0153,-0.0144,-0.0098,-0.0136,-0.0137,-0.0123,-0.0064,-0.0058,-0.0052,-0.012,-0.012,-0.012,0,0,-0.02,-0.0212,-0.0236,-0.0239,-0.0242,-0.024,-0.0241,-0.0242,-0.0235,-0.0233,-0.0217,-0.0198,-0.0189,-0.0166,-0.0154,-0.0162,-0.0117,-0.0168,-0.0154,-0.0098,-0.0092,-0.0086,-0.003,-0.0018,-0.016,-0.016,-0.016,0,-0.0204,-0.0237,-0.0241,-0.0257,-0.026,-0.0245,-0.0258,-0.0252,-0.0247,-0.0231,-0.0234,-0.0199,-0.0188,-0.0152,-0.016,-0.0162,-0.0124,-0.0144,-0.0097,-0.0091,-0.0084,-0.0028,-0.0016,-0.0161,-0.0161,-0.0161,-0.0161,0,-0.0242,-0.0263,-0.0275,-0.0291,-0.0293,-0.0303,-0.0291,-0.0285,-0.0273,-0.0256,-0.0225,-0.0206,-0.0176,-0.0177,-0.0171,-0.0123,-0.0109,-0.0111,-0.0086,-0.0078,-0.002,-0.0007,-0.0162,-0.0161,-0.0161,-0.0161,0,0,-0.0256,-0.0297,-0.0298,-0.0309,-0.0311,-0.0316,-0.0309,-0.0291,-0.0271,-0.0253,-0.0219,-0.0199,-0.0171,-0.0156,-0.0139,-0.0092,-0.0023,-0.0083,-0.0079,-0.0016,0.0109,0.008,0.0092,-0.0013,-0.0011,-0.0009,0.0131,0,-0.0278,-0.0324,-0.0332,-0.0354,-0.0369,-0.035,-0.0342,-0.0317,-0.0289,-0.0253,-0.0202,-0.0174,-0.0167,-0.0151,-0.0099,-0.005,0.0012,-0.006,0.0083,0.0087,0.007,0.0106,-0.0002,0.0141,0.0144,0.0147,0.0148,0,-0.0304,-0.0331,-0.0372,-0.0382,-0.0384,-0.0391,-0.0361,-0.0351,-0.0287,-0.0259,-0.02,-0.0163,-0.0092,-0.0095,0.0035,-0.001,0.0054,0.0099,0.0105,0.0095,0.0083,0.0132,0.0173,0.0171,0.0169,0.0168,0.0166,0,-0.0312,-0.0349,-0.0385,-0.0393,-0.0406,-0.0405,-0.0398,-0.0351,-0.0331,-0.0257,-0.0227,-0.0133,-0.0089,0.0006,0.0096,0.0072,0.0245,0.0223,0.027,0.0269,0.0258,0.025,0.0336,0.0336,0.0336,0.0335,0.0335,0,-0.033,-0.0352,-0.0396,-0.0415,-0.0433,-0.0426,-0.0417,-0.039,-0.0339,-0.0302,-0.023,-0.0178,-0.0062,0.0043,0.0124,0.0243,0.0277,0.0291,0.0309,0.0248,0.0237,0.0268,0.0258,0.034,0.0339,0.0338,0.0337,0,-0.0331,-0.0367,-0.0407,-0.0438,-0.0445,-0.0455,-0.0448,-0.0431,-0.0382,-0.033,-0.0308,-0.0194,-0.0061,0.0066,0.0228,0.0272,0.0388,0.0427,0.037,0.0379,0.0369,0.0357,0.049,0.0491,0.0491,0.0491,0.0491,0,-0.0336,-0.0364,-0.0427,-0.0452,-0.0472,-0.0484,-0.0485,-0.0455,-0.0435,-0.0339,-0.0312,-0.0176,-0.0089,0.0139,0.0252,0.0431,0.0439,0.0496,0.0417,0.0385,0.0389,0.0376,0.0364,0.0492,0.0492,0.0492,0.0492,0,-0.0332,-0.0367,-0.0408,-0.0469,-0.0496,-0.0515,-0.0516,-0.0505,-0.0453,-0.0412,-0.0295,-0.0175,-0.0018,0.0138,0.0287,0.0403,0.045,0.0499,0.0498,0.0424,0.0388,0.0389,0.0376,0.0493,0.0493,0.0492,0.0492,0,-0.0326,-0.0353,-0.0417,-0.0465,-0.0514,-0.0535,-0.0534,-0.0498,-0.0469,-0.0368,-0.0327,-0.0153,-0.0048,0.0126,0.026,0.0375,0.0378,0.0379,0.0385,0.0385,0.0292,0.0226,0.0317,0,0,0,0,0,-0.0303,-0.0335,-0.0395,-0.046,-0.0521,-0.0542,-0.0546,-0.0536,-0.0491,-0.0412,-0.0367,-0.0217,-0.0011,0.0084,0.0196,0.0236,0.0381,0.0364,0.0381,0.0497,0.0496,0.04,0,0,0,0,0,0,-0.0289,-0.0342,-0.0386,-0.0453,-0.0496,-0.0545,-0.0553,-0.0524,-0.0475,-0.0411,-0.0292,-0.0219,-0.0011,-0.0065,0.0194,0.0229,0.0244,0.047,0.0472,0.0498,0.0497,0.0496,0.0396,0,0,0,0,0]}]]